GFSCGP_500_temp_096.txt.gz
Temp
-7 -6 -6 -6 -5 -6 -6 -6 -5 -7 -6 -6 -6 -6 -6 -6 -6 -6 -6 -5 -5 -5 -5 -5 -4 -5 -4 -5 -5 -5 -5 -5 -6 -6 -6 -6 -6 -6 -6 -7 -6 -6 -7 -7
-7 -6 -7 -6 -6 -6 -6 -8 -7 -6 -6 -7 -6 -6 -6 -6 -6 -7 -6 -6 -5 -5 -5 -5 -5 -5 -5 -5 -5 -5 -5 -5 -6 -6 -6 -6 -6 -6 -5 -6 -6 -6 -6 -6
-8 -8 -7 -7 -7 -7 -7 -8 -7 -7 -6 -5 -7 -6 -5 -7 -6 -6 -6 -6 -6 -5 -5 -5 -5 -5 -5 -5 -5 -4 -4 -5 -5 -6 -5 -6 -6 -6 -5 -6 -6 -6 -6 -6
-9 -9 -9 -8 -8 -7 -9 -7 -8 -7 -7 -8 -8 -7 -6 -6 -6 -7 -6 -6 -6 -6 -6 -5 -5 -5 -5 -4 -5 -5 -4 -5 -5 -5 -5 -6 -6 -6 -5 -5 -6 -6 -6 -5
-9 -9 -10 -9 -8 -9 -7 -8 -8 -7 -7 -8 -8 -8 -7 -6 -6 -5 -6 -5 -6 -6 -6 -5 -5 -5 -5 -4 -5 -5 -5 -5 -5 -5 -6 -6 -6 -5 -5 -5 -6 -5 -6 -6
-11 -10 -11 -10 -9 -9 -9 -9 -9 -8 -8 -8 -8 -8 -8 -7 -5 -5 -5 -5 -6 -6 -6 -6 -5 -5 -4 -4 -5 -5 -5 -5 -5 -5 -5 -5 -6 -5 -6 -6 -5 -5 -6 -6
-10 -12 -11 -9 -9 -9 -9 -9 -9 -8 -9 -8 -8 -8 -7 -6 -6 -6 -7 -7 -7 -6 -6 -5 -5 -5 -5 -5 -5 -5 -5 -5 -5 -5 -5 -5 -5 -6 -6 -6 -6 -5 -5 -6
-10 -12 -11 -9 -10 -10 -10 -10 -10 -9 -9 -8 -8 -8 -7 -7 -8 -8 -8 -8 -5 -6 -6 -5 -5 -6 -6 -6 -5 -6 -5 -5 -5 -5 -5 -5 -5 -6 -6 -6 -6 -5 -5 -5
-12 -12 -11 -10 -10 -11 -11 -10 -10 -9 -9 -8 -8 -8 -7 -7 -8 -8 -8 -7 -6 -5 -4 -5 -6 -7 -6 -6 -6 -6 -5 -5 -5 -5 -5 -5 -5 -5 -5 -5 -6 -5 -5 -5
-12 -12 -12 -11 -10 -10 -10 -11 -10 -9 -9 -8 -8 -7 -8 -7 -7 -6 -5 -6 -6 -6 -6 -6 -5 -5 -5 -5 -7 -6 -6 -5 -5 -4 -5 -5 -5 -5 -5 -5 -5 -6 -5 -5
-12 -12 -13 -11 -11 -10 -10 -9 -9 -10 -9 -9 -9 -8 -9 -9 -8 -7 -7 -7 -7 -6 -7 -7 -7 -7 -7 -5 -6 -6 -6 -6 -5 -5 -4 -4 -4 -5 -5 -6 -6 -6 -6 -5
-12 -12 -12 -12 -10 -10 -10 -10 -9 -10 -9 -10 -9 -8 -8 -9 -6 -7 -7 -7 -7 -7 -6 -7 -7 -6 -6 -5 -4 -7 -5 -6 -6 -6 -6 -5 -4 -4 -5 -6 -6 -6 -6 -6
-12 -12 -13 -13 -11 -11 -11 -10 -11 -10 -10 -10 -9 -9 -10 -8 -8 -7 -7 -7 -7 -7 -8 -7 -8 -7 -8 -7 -7 -6 -6 -5 -5 -5 -5 -6 -5 -4 -4 -5 -5 -6 -6 -6
-13 -13 -13 -13 -13 -13 -11 -11 -10 -11 -11 -10 -10 -10 -9 -10 -8 -8 -9 -8 -7 -8 -8 -7 -7 -7 -7 -7 -6 -6 -6 -7 -6 -3 -6 -5 -5 -6 -5 -5 -5 -6 -6 -6
-14 -14 -14 -12 -13 -13 -13 -11 -12 -10 -10 -11 -10 -10 -10 -9 -9 -8 -9 -9 -8 -8 -8 -8 -8 -8 -8 -7 -6 -6 -6 -6 -7 -7 -6 -6 -6 -6 -5 -5 -5 -5 -6 -6
-15 -15 -15 -13 -13 -12 -13 -13 -13 -12 -10 -12 -11 -11 -10 -10 -9 -9 -9 -9 -9 -9 -9 -8 -8 -8 -8 -8 -8 -7 -6 -6 -6 -7 -6 -6 -7 -6 -7 -6 -6 -5 -5 -6
-15 -15 -15 -14 -15 -14 -13 -14 -14 -11 -12 -13 -10 -10 -10 -10 -11 -10 -10 -9 -10 -9 -9 -9 -9 -9 -9 -9 -9 -8 -7 -6 -6 -5 -7 -7 -8 -6 -5 -7 -7 -5 -5 -6
-16 -16 -15 -16 -16 -14 -14 -14 -13 -14 -15 -14 -12 -10 -10 -10 -11 -11 -11 -10 -10 -10 -10 -9 -9 -9 -9 -9 -8 -9 -9 -8 -7 -6 -5 -5 -6 -7 -7 -7 -7 -6 -6 -6
-15 -16 -16 -16 -16 -15 -15 -14 -15 -15 -15 -14 -13 -12 -11 -10 -10 -11 -11 -11 -10 -10 -10 -9 -9 -9 -9 -9 -9 -9 -9 -8 -8 -7 -6 -6 -6 -6 -6 -6 -6 -6 -6 -7
-15 -16 -16 -16 -16 -16 -15 -14 -15 -15 -16 -14 -14 -13 -12 -13 -12 -11 -11 -10 -10 -10 -10 -10 -10 -10 -9 -9 -9 -9 -9 -9 -8 -8 -8 -7 -7 -6 -6 -7 -7 -7 -7 -7
-15 -15 -15 -16 -16 -17 -15 -15 -15 -16 -17 -14 -14 -14 -13 -14 -14 -10 -10 -11 -11 -11 -11 -11 -10 -10 -10 -9 -9 -9 -9 -8 -8 -8 -8 -8 -7 -7 -7 -7 -7 -7 -7 -7
-16 -16 -16 -16 -16 -18 -15 -16 -16 -15 -16 -15 -15 -14 -14 -14 -14 -12 -11 -11 -12 -12 -11 -11 -11 -10 -10 -10 -9 -9 -9 -9 -8 -8 -8 -8 -8 -8 -7 -7 -7 -7 -7 -7
-17 -15 -16 -16 -16 -16 -15 -14 -15 -15 -15 -15 -15 -15 -15 -14 -14 -13 -13 -12 -12 -12 -12 -11 -11 -11 -11 -11 -10 -10 -9 -9 -9 -9 -8 -8 -8 -8 -8 -8 -7 -7 -7 -7
-17 -17 -17 -17 -16 -16 -15 -15 -16 -15 -15 -15 -15 -15 -15 -14 -15 -14 -13 -13 -13 -13 -12 -12 -12 -11 -11 -11 -11 -11 -10 -10 -9 -9 -9 -9 -9 -9 -8 -8 -8 -8 -7 -7
-17 -17 -17 -17 -17 -16 -16 -16 -16 -15 -15 -15 -15 -15 -15 -15 -14 -14 -14 -14 -14 -13 -13 -13 -13 -13 -12 -12 -12 -12 -12 -11 -11 -10 -10 -10 -9 -9 -9 -9 -8 -8 -8 -8
-18 -18 -18 -18 -18 -17 -17 -17 -17 -16 -16 -16 -15 -15 -15 -15 -15 -15 -14 -14 -14 -14 -14 -14 -14 -13 -13 -13 -13 -13 -12 -12 -12 -12 -11 -11 -11 -10 -9 -9 -9 -9 -9 -8

GFSCGP_500_temp_102.txt.gz
Temp
-6 -6 -6 -6 -6 -7 -7 -6 -6 -5 -5 -6 -5 -6 -6 -5 -6 -5 -5 -5 -5 -5 -5 -5 -6 -6 -6 -5 -5 -5 -5 -6 -6 -6 -6 -6 -7 -6 -6 -6 -7 -7 -8 -7
-6 -6 -7 -7 -7 -7 -7 -7 -5 -5 -5 -7 -7 -6 -6 -6 -6 -6 -5 -6 -5 -5 -6 -5 -5 -5 -5 -5 -5 -5 -6 -6 -6 -6 -6 -6 -7 -7 -7 -6 -6 -7 -8 -7
-7 -8 -7 -7 -7 -6 -7 -7 -6 -6 -6 -6 -6 -7 -6 -6 -6 -6 -6 -6 -5 -5 -6 -6 -6 -6 -5 -5 -6 -5 -6 -6 -6 -7 -7 -6 -7 -7 -7 -6 -6 -7 -7 -7
-8 -8 -8 -7 -7 -7 -7 -8 -7 -7 -7 -7 -8 -7 -6 -6 -4 -6 -6 -6 -6 -6 -6 -6 -7 -6 -6 -6 -5 -6 -5 -6 -6 -6 -7 -6 -7 -7 -7 -7 -6 -6 -7 -7
-9 -8 -8 -8 -7 -7 -8 -8 -8 -9 -9 -8 -7 -7 -6 -6 -6 -7 -6 -6 -5 -5 -6 -7 -7 -7 -6 -6 -5 -6 -5 -6 -6 -7 -6 -7 -7 -7 -7 -7 -7 -6 -7 -7
-9 -10 -9 -9 -8 -7 -9 -9 -9 -9 -8 -7 -7 -6 -7 -6 -6 -6 -7 -7 -6 -5 -5 -6 -7 -7 -6 -6 -6 -6 -6 -6 -6 -7 -6 -7 -7 -7 -7 -7 -7 -7 -7 -7
-10 -9 -9 -9 -9 -8 -10 -9 -9 -8 -8 -7 -7 -6 -7 -7 -7 -7 -8 -6 -6 -6 -7 -5 -6 -7 -7 -7 -6 -6 -6 -6 -6 -7 -7 -7 -7 -7 -7 -7 -7 -7 -7 -7
-10 -10 -10 -10 -9 -9 -10 -9 -10 -9 -8 -9 -8 -7 -7 -8 -7 -8 -7 -6 -6 -7 -6 -6 -6 -6 -7 -6 -7 -6 -6 -6 -6 -7 -7 -7 -7 -7 -7 -7 -7 -7 -7 -7
-11 -11 -11 -10 -9 -9 -10 -10 -10 -10 -9 -9 -9 -8 -7 -6 -6 -7 -6 -7 -6 -6 -6 -6 -6 -6 -6 -6 -6 -6 -6 -7 -6 -6 -7 -7 -7 -7 -7 -6 -7 -7 -7 -7
-12 -11 -11 -11 -11 -10 -10 -10 -10 -10 -9 -9 -9 -9 -9 -7 -6 -7 -6 -7 -7 -7 -7 -7 -8 -7 -7 -6 -6 -6 -6 -6 -6 -6 -6 -7 -7 -7 -7 -6 -6 -7 -7 -7
-12 -11 -11 -12 -11 -10 -10 -10 -10 -10 -9 -10 -9 -9 -8 -7 -6 -6 -6 -7 -7 -8 -8 -7 -6 -6 -6 -6 -6 -7 -7 -6 -7 -6 -5 -6 -7 -7 -6 -7 -7 -6 -7 -7
-12 -12 -12 -12 -12 -11 -10 -10 -11 -10 -10 -10 -10 -10 -9 -8 -8 -7 -8 -7 -8 -8 -7 -7 -6 -7 -6 -6 -6 -7 -7 -6 -7 -7 -6 -6 -6 -6 -6 -6 -7 -7 -7 -7
-13 -12 -13 -13 -12 -12 -11 -10 -11 -10 -10 -10 -10 -9 -8 -8 -8 -8 -7 -8 -8 -8 -7 -7 -7 -7 -7 -7 -6 -6 -6 -6 -7 -7 -7 -6 -6 -6 -6 -6 -6 -7 -6 -6
-14 -13 -13 -12 -12 -11 -12 -10 -11 -10 -10 -10 -10 -9 -9 -8 -8 -8 -6 -8 -8 -8 -8 -8 -8 -8 -7 -7 -8 -7 -7 -7 -6 -7 -6 -7 -7 -7 -6 -6 -6 -6 -6 -6
-14 -13 -13 -12 -12 -11 -11 -10 -11 -11 -11 -10 -9 -9 -9 -9 -9 -9 -9 -9 -9 -9 -9 -8 -8 -8 -7 -7 -8 -8 -8 -7 -7 -7 -7 -6 -7 -7 -7 -7 -6 -6 -6 -6
-14 -13 -14 -13 -12 -12 -12 -11 -11 -11 -11 -10 -10 -9 -9 -9 -9 -9 -8 -9 -9 -9 -9 -8 -8 -8 -9 -8 -7 -7 -8 -8 -7 -7 -7 -7 -6 -7 -6 -6 -7 -7 -7 -6
-13 -14 -14 -13 -13 -12 -12 -12 -11 -11 -11 -11 -10 -9 -9 -9 -9 -9 -9 -10 -10 -9 -9 -9 -9 -9 -9 -9 -9 -8 -8 -9 -8 -9 -8 -7 -7 -7 -7 -6 -6 -7 -7 -7
-15 -14 -14 -13 -13 -13 -14 -13 -12 -11 -11 -11 -10 -9 -9 -9 -10 -10 -10 -10 -10 -10 -11 -10 -10 -10 -9 -9 -9 -9 -9 -9 -9 -8 -8 -7 -8 -8 -8 -8 -7 -7 -7 -8
-15 -15 -14 -14 -14 -13 -13 -14 -13 -12 -11 -11 -10 -10 -9 -9 -10 -10 -11 -11 -11 -10 -10 -10 -10 -10 -10 -10 -10 -10 -10 -10 -9 -9 -9 -9 -9 -9 -8 -8 -8 -8 -8 -7
-15 -15 -14 -14 -14 -14 -13 -14 -14 -12 -12 -12 -11 -11 -10 -9 -10 -10 -11 -12 -12 -11 -10 -11 -11 -11 -11 -11 -10 -10 -9 -9 -10 -10 -10 -9 -9 -9 -8 -8 -8 -9 -9 -8
-16 -16 -16 -16 -16 -15 -15 -15 -13 -14 -13 -12 -12 -12 -11 -11 -10 -10 -12 -11 -12 -12 -12 -12 -12 -12 -12 -12 -11 -11 -10 -10 -10 -10 -10 -10 -10 -9 -9 -9 -8 -8 -8 -9
-16 -16 -16 -16 -16 -16 -15 -16 -15 -13 -14 -14 -14 -13 -13 -12 -12 -12 -12 -12 -11 -12 -12 -13 -13 -12 -11 -11 -11 -11 -11 -10 -10 -10 -10 -10 -10 -9 -9 -9 -8 -8 -8 -8
-16 -16 -16 -16 -16 -16 -16 -16 -16 -15 -15 -15 -14 -14 -13 -13 -13 -14 -13 -14 -13 -12 -13 -13 -14 -13 -12 -11 -11 -11 -12 -11 -11 -10 -10 -9 -9 -9 -9 -9 -9 -8 -8 -8
-16 -16 -16 -16 -16 -16 -16 -16 -16 -16 -16 -15 -15 -14 -14 -14 -13 -13 -13 -13 -13 -14 -13 -13 -13 -13 -12 -12 -11 -11 -11 -11 -11 -11 -10 -10 -10 -9 -9 -9 -9 -9 -8 -8
-17 -17 -17 -17 -16 -16 -16 -16 -16 -17 -17 -16 -16 -15 -15 -15 -14 -14 -14 -14 -15 -14 -14 -14 -14 -14 -13 -12 -12 -12 -11 -11 -11 -11 -11 -11 -10 -10 -10 -10 -10 -9 -9 -9
-17 -18 -18 -17 -17 -17 -17 -16 -17 -17 -17 -17 -17 -16 -16 -15 -15 -14 -14 -15 -15 -15 -15 -15 -14 -14 -14 -14 -14 -13 -13 -12 -12 -12 -12 -11 -11 -11 -11 -11 -11 -11 -10 -10

GFSCGP_500_temp_105.txt.gz
Temp
-7 -7 -7 -7 -7 -7 -8 -7 -6 -5 -5 -6 -5 -5 -5 -6 -5 -5 -5 -5 -5 -6 -5 -5 -5 -6 -6 -6 -6 -6 -7 -6 -7 -7 -7 -7 -7 -7 -7 -7 -8 -8 -8 -8
-7 -7 -7 -7 -7 -8 -8 -7 -6 -5 -5 -5 -6 -6 -6 -6 -6 -6 -6 -6 -6 -5 -6 -5 -5 -6 -6 -6 -6 -7 -7 -7 -6 -7 -7 -7 -7 -7 -7 -7 -7 -8 -8 -8
-8 -8 -8 -7 -7 -8 -9 -8 -7 -7 -6 -6 -6 -6 -6 -6 -6 -6 -6 -6 -6 -7 -6 -6 -6 -6 -6 -6 -6 -6 -7 -6 -7 -7 -7 -7 -7 -7 -7 -6 -7 -7 -7 -8
-9 -8 -8 -7 -7 -8 -8 -8 -8 -7 -7 -6 -7 -7 -7 -6 -6 -6 -6 -6 -6 -6 -6 -6 -6 -6 -6 -6 -6 -6 -6 -7 -6 -7 -7 -7 -7 -7 -7 -6 -7 -7 -7 -8
-9 -8 -8 -8 -7 -7 -9 -9 -9 -8 -8 -7 -7 -7 -6 -6 -6 -6 -6 -6 -6 -6 -7 -7 -7 -6 -6 -6 -6 -5 -6 -6 -7 -7 -7 -7 -7 -7 -7 -7 -7 -7 -7 -7
-9 -9 -8 -8 -9 -8 -10 -10 -9 -9 -8 -8 -7 -7 -7 -7 -7 -6 -7 -6 -6 -7 -7 -7 -6 -6 -6 -6 -6 -6 -6 -6 -7 -7 -7 -7 -7 -7 -7 -7 -7 -7 -7 -7
-10 -9 -9 -9 -8 -8 -10 -10 -9 -9 -8 -8 -7 -6 -7 -7 -7 -7 -6 -6 -6 -5 -6 -6 -6 -6 -6 -6 -6 -6 -6 -6 -6 -7 -7 -7 -7 -7 -7 -7 -7 -7 -7 -7
-10 -10 -9 -9 -8 -9 -9 -9 -9 -9 -8 -8 -8 -6 -7 -7 -7 -6 -7 -6 -6 -6 -5 -6 -6 -6 -7 -6 -6 -6 -6 -6 -6 -7 -7 -7 -7 -7 -7 -7 -7 -7 -7 -7
-11 -11 -10 -10 -10 -9 -9 -10 -10 -10 -9 -9 -8 -7 -7 -7 -6 -7 -6 -6 -6 -6 -6 -6 -6 -6 -6 -6 -6 -6 -6 -6 -6 -6 -7 -7 -7 -7 -7 -7 -7 -7 -7 -7
-11 -11 -11 -11 -10 -10 -10 -10 -10 -10 -9 -9 -8 -7 -8 -7 -7 -7 -7 -6 -7 -6 -6 -6 -6 -6 -6 -6 -7 -7 -7 -6 -6 -6 -6 -6 -6 -6 -7 -7 -7 -7 -7 -7
-12 -12 -11 -12 -11 -10 -10 -10 -10 -10 -9 -9 -8 -7 -7 -7 -7 -7 -6 -7 -7 -7 -6 -7 -6 -7 -7 -7 -7 -7 -7 -7 -6 -6 -6 -6 -6 -6 -6 -7 -7 -7 -7 -7
-13 -12 -12 -13 -12 -11 -11 -11 -11 -10 -10 -9 -9 -8 -8 -7 -7 -7 -7 -7 -7 -7 -7 -7 -7 -8 -7 -7 -7 -6 -7 -7 -7 -7 -7 -6 -6 -6 -6 -6 -6 -6 -7 -7
-13 -13 -13 -13 -13 -12 -11 -10 -11 -11 -10 -10 -9 -9 -8 -8 -8 -8 -7 -7 -7 -7 -7 -7 -7 -8 -7 -7 -7 -7 -7 -6 -6 -7 -7 -7 -7 -7 -7 -7 -6 -6 -6 -6
-14 -13 -13 -13 -13 -12 -11 -10 -11 -11 -11 -10 -10 -9 -9 -8 -7 -8 -8 -8 -8 -8 -8 -8 -7 -8 -8 -8 -8 -6 -6 -5 -6 -7 -8 -7 -7 -7 -7 -7 -7 -6 -6 -6
-14 -14 -13 -13 -13 -12 -11 -11 -10 -11 -11 -11 -10 -10 -9 -9 -8 -8 -8 -8 -8 -8 -9 -8 -8 -8 -8 -9 -7 -8 -6 -6 -6 -7 -7 -7 -7 -7 -7 -7 -7 -7 -7 -7
-14 -14 -13 -13 -12 -13 -12 -11 -11 -11 -12 -11 -11 -10 -10 -10 -9 -9 -9 -9 -8 -8 -9 -9 -9 -9 -9 -8 -8 -8 -8 -7 -7 -7 -7 -7 -7 -7 -8 -7 -7 -7 -7 -7
-15 -14 -14 -13 -13 -12 -12 -12 -12 -11 -11 -11 -11 -10 -10 -10 -10 -10 -9 -9 -9 -8 -9 -9 -9 -9 -9 -9 -9 -9 -8 -8 -7 -7 -7 -7 -7 -7 -7 -7 -7 -8 -7 -7
-15 -15 -14 -14 -14 -13 -13 -12 -12 -12 -12 -12 -11 -11 -10 -10 -10 -10 -10 -10 -9 -10 -10 -10 -9 -10 -9 -9 -10 -9 -9 -9 -8 -8 -8 -8 -7 -8 -7 -7 -7 -7 -7 -7
-15 -15 -15 -14 -14 -14 -13 -12 -13 -13 -12 -11 -11 -11 -11 -11 -10 -10 -10 -10 -10 -11 -11 -11 -10 -10 -9 -9 -9 -10 -9 -9 -9 -9 -9 -9 -8 -8 -9 -9 -9 -7 -7 -7
-16 -15 -15 -15 -15 -15 -14 -13 -12 -12 -12 -11 -12 -11 -11 -11 -10 -11 -11 -11 -10 -11 -12 -11 -11 -10 -10 -10 -9 -9 -10 -9 -9 -10 -10 -10 -9 -9 -8 -9 -9 -9 -8 -8
-16 -16 -15 -15 -15 -15 -14 -14 -14 -12 -12 -11 -12 -12 -11 -11 -11 -11 -11 -12 -12 -11 -11 -11 -11 -11 -11 -10 -10 -9 -9 -9 -9 -9 -9 -9 -9 -9 -9 -9 -9 -9 -9 -9
-16 -16 -16 -16 -16 -14 -14 -14 -14 -14 -14 -14 -13 -13 -12 -12 -12 -12 -13 -13 -12 -12 -12 -11 -11 -12 -11 -11 -11 -11 -11 -10 -10 -9 -9 -9 -9 -9 -9 -9 -9 -9 -9 -9
-16 -16 -16 -16 -16 -16 -16 -15 -15 -15 -14 -14 -13 -13 -13 -13 -13 -13 -14 -14 -14 -13 -12 -13 -12 -12 -11 -11 -11 -11 -11 -11 -11 -11 -10 -10 -9 -9 -9 -9 -9 -8 -8 -9
-16 -16 -16 -16 -16 -16 -16 -16 -16 -16 -15 -15 -14 -14 -14 -14 -14 -14 -14 -15 -15 -14 -14 -13 -12 -12 -13 -13 -12 -12 -12 -12 -11 -11 -11 -10 -10 -10 -10 -9 -9 -9 -9 -8
-16 -16 -16 -16 -16 -16 -16 -16 -17 -16 -16 -16 -15 -15 -15 -15 -15 -15 -15 -15 -15 -15 -14 -14 -14 -13 -13 -13 -13 -14 -13 -12 -12 -12 -12 -11 -11 -10 -10 -10 -9 -9 -9 -9
-17 -17 -17 -17 -17 -17 -17 -17 -17 -16 -16 -16 -16 -16 -17 -16 -16 -16 -16 -16 -16 -15 -15 -14 -14 -14 -13 -14 -14 -14 -14 -13 -13 -13 -13 -12 -12 -11 -11 -10 -10 -9 -9 -9

GFSCGP_500_temp_111.txt.gz
Temp
-8 -8 -8 -7 -7 -7 -7 -6 -6 -6 -7 -7 -6 -6 -5 -6 -6 -5 -5 -5 -5 -5 -6 -5 -6 -5 -5 -6 -6 -7 -7 -7 -7 -7 -7 -7 -7 -8 -8 -8 -8 -8 -8 -8
-7 -8 -8 -8 -8 -7 -7 -7 -6 -7 -7 -7 -7 -7 -6 -6 -6 -5 -5 -6 -5 -5 -6 -5 -5 -5 -5 -5 -6 -7 -7 -7 -7 -8 -7 -7 -7 -8 -8 -8 -8 -8 -7 -7
-8 -8 -8 -8 -8 -8 -7 -8 -7 -7 -7 -7 -7 -6 -6 -7 -7 -5 -5 -5 -6 -6 -6 -6 -5 -5 -5 -5 -6 -6 -7 -7 -7 -7 -8 -7 -7 -7 -8 -8 -8 -8 -8 -8
-9 -8 -8 -8 -8 -8 -8 -8 -8 -8 -7 -7 -6 -6 -6 -7 -7 -6 -6 -6 -6 -6 -5 -5 -5 -5 -5 -5 -6 -6 -6 -7 -7 -7 -7 -7 -7 -7 -7 -7 -8 -7 -7 -7
-9 -9 -9 -8 -8 -9 -9 -9 -8 -7 -7 -6 -6 -6 -7 -7 -7 -6 -6 -6 -6 -6 -5 -5 -5 -5 -6 -5 -5 -6 -6 -7 -7 -7 -7 -7 -7 -7 -7 -7 -7 -7 -7 -7
-10 -10 -9 -9 -9 -9 -9 -9 -9 -8 -7 -7 -7 -7 -8 -7 -6 -6 -6 -7 -6 -6 -6 -5 -5 -5 -6 -5 -5 -6 -6 -7 -7 -7 -7 -7 -7 -7 -7 -7 -7 -7 -7 -7
-10 -10 -10 -10 -9 -8 -9 -9 -9 -8 -8 -7 -8 -7 -7 -6 -7 -7 -6 -6 -7 -6 -6 -5 -5 -5 -6 -6 -5 -6 -6 -6 -6 -7 -7 -7 -7 -6 -7 -7 -7 -7 -7 -7
-11 -10 -10 -10 -9 -9 -8 -9 -8 -8 -8 -7 -8 -7 -7 -6 -6 -5 -6 -6 -7 -6 -6 -6 -6 -6 -6 -6 -6 -5 -6 -6 -6 -6 -7 -6 -7 -7 -6 -7 -6 -7 -7 -7
-11 -11 -11 -11 -11 -10 -9 -9 -9 -9 -8 -8 -8 -8 -8 -7 -7 -6 -6 -7 -7 -7 -7 -7 -6 -6 -6 -5 -5 -6 -6 -6 -6 -6 -7 -7 -7 -7 -7 -6 -6 -6 -7 -7
-12 -11 -11 -11 -11 -11 -10 -10 -10 -9 -8 -8 -8 -8 -8 -8 -7 -7 -7 -8 -7 -7 -6 -6 -7 -7 -7 -6 -6 -6 -6 -6 -6 -6 -6 -6 -7 -7 -7 -7 -6 -6 -6 -6
-12 -12 -11 -12 -11 -11 -10 -10 -10 -10 -9 -9 -8 -7 -8 -8 -7 -7 -8 -8 -7 -6 -7 -7 -7 -7 -6 -7 -7 -6 -6 -6 -6 -6 -6 -6 -6 -7 -7 -7 -7 -6 -6 -6
-13 -12 -12 -12 -12 -11 -11 -11 -10 -11 -10 -10 -9 -8 -8 -8 -7 -7 -8 -8 -7 -7 -7 -7 -6 -6 -7 -6 -6 -6 -7 -6 -6 -7 -6 -6 -6 -7 -7 -7 -7 -7 -7 -7
-14 -13 -13 -12 -12 -12 -12 -11 -11 -11 -11 -10 -9 -8 -9 -9 -8 -7 -7 -7 -8 -8 -7 -7 -6 -7 -6 -6 -6 -6 -6 -6 -6 -6 -6 -6 -6 -7 -7 -7 -7 -7 -7 -7
-14 -14 -14 -14 -13 -12 -12 -12 -12 -12 -11 -11 -10 -9 -9 -9 -9 -8 -8 -7 -8 -8 -8 -8 -7 -7 -8 -7 -7 -6 -6 -6 -6 -6 -7 -6 -6 -6 -7 -7 -7 -7 -7 -7
-15 -14 -14 -14 -13 -13 -13 -12 -12 -12 -12 -12 -11 -10 -9 -10 -10 -9 -9 -8 -8 -8 -8 -8 -9 -8 -8 -7 -7 -6 -7 -7 -6 -6 -7 -6 -7 -7 -7 -7 -7 -7 -7 -7
-15 -14 -14 -14 -14 -14 -13 -13 -13 -12 -12 -12 -12 -11 -10 -10 -10 -10 -9 -9 -8 -8 -8 -8 -9 -8 -8 -7 -7 -7 -7 -7 -7 -7 -6 -6 -6 -7 -7 -7 -7 -7 -7 -7
-15 -15 -14 -14 -14 -14 -14 -13 -13 -13 -12 -12 -12 -12 -11 -11 -10 -10 -10 -10 -9 -9 -9 -9 -8 -9 -9 -8 -8 -7 -7 -8 -7 -7 -7 -7 -7 -7 -7 -7 -7 -7 -7 -7
-15 -15 -15 -14 -14 -14 -13 -13 -13 -13 -13 -12 -12 -12 -12 -11 -11 -11 -11 -11 -10 -10 -10 -9 -9 -9 -8 -8 -8 -8 -8 -9 -8 -7 -7 -7 -7 -7 -7 -7 -8 -7 -8 -7
-16 -15 -15 -15 -14 -14 -13 -13 -13 -13 -13 -13 -12 -12 -12 -12 -11 -11 -11 -11 -11 -11 -11 -10 -10 -10 -9 -9 -9 -9 -8 -9 -8 -8 -8 -8 -8 -7 -7 -7 -7 -9 -9 -9
-16 -16 -15 -15 -14 -14 -14 -13 -13 -13 -13 -13 -13 -13 -12 -12 -11 -12 -12 -11 -11 -11 -11 -11 -11 -10 -10 -10 -9 -9 -9 -9 -9 -9 -9 -9 -9 -9 -9 -9 -9 -9 -10 -10
-16 -16 -16 -16 -15 -14 -14 -14 -14 -13 -14 -13 -13 -13 -13 -13 -12 -12 -12 -11 -11 -11 -11 -11 -11 -11 -10 -10 -10 -10 -10 -9 -9 -9 -9 -9 -9 -9 -9 -10 -9 -9 -9 -9
-16 -16 -16 -16 -15 -15 -14 -14 -14 -14 -14 -14 -14 -13 -13 -13 -13 -12 -12 -12 -11 -11 -12 -12 -12 -11 -11 -10 -10 -10 -10 -10 -10 -9 -9 -9 -9 -9 -9 -9 -9 -9 -9 -9
-16 -16 -16 -16 -16 -15 -15 -15 -14 -14 -14 -14 -14 -14 -13 -13 -13 -13 -13 -12 -12 -12 -13 -12 -12 -12 -12 -11 -11 -11 -11 -11 -11 -11 -10 -10 -9 -9 -9 -9 -9 -10 -10 -10
-16 -16 -16 -16 -16 -15 -15 -15 -15 -14 -14 -14 -14 -14 -13 -14 -14 -14 -13 -13 -12 -12 -13 -13 -13 -13 -12 -12 -11 -11 -11 -11 -11 -10 -10 -10 -10 -9 -10 -10 -10 -10 -10 -10
-16 -16 -16 -16 -16 -16 -16 -15 -16 -15 -15 -15 -15 -14 -14 -14 -14 -14 -13 -13 -13 -12 -13 -12 -12 -12 -13 -12 -12 -12 -12 -12 -12 -11 -11 -10 -11 -10 -10 -11 -10 -11 -10 -10
-16 -16 -16 -16 -16 -16 -16 -16 -16 -16 -16 -16 -16 -16 -15 -15 -14 -14 -14 -14 -14 -13 -13 -13 -13 -13 -14 -13 -13 -13 -12 -13 -12 -12 -12 -12 -11 -11 -11 -11 -11 -11 -10 -10

GFSCGP_500_temp_114.txt.gz
Temp
-8 -8 -8 -8 -7 -6 -7 -7 -6 -7 -6 -6 -6 -6 -6 -5 -6 -5 -5 -5 -5 -5 -5 -5 -5 -5 -5 -5 -6 -6 -6 -6 -7 -7 -7 -7 -7 -8 -8 -7 -8 -8 -8 -8
-8 -8 -8 -8 -8 -7 -7 -7 -7 -6 -8 -7 -6 -6 -6 -5 -5 -6 -5 -5 -5 -5 -5 -5 -5 -5 -5 -5 -6 -6 -6 -6 -6 -7 -7 -7 -7 -7 -7 -7 -7 -7 -8 -8
-9 -8 -8 -8 -8 -8 -8 -8 -8 -8 -7 -7 -6 -6 -6 -6 -5 -6 -5 -5 -5 -5 -5 -5 -6 -6 -6 -5 -5 -6 -6 -6 -6 -6 -7 -7 -7 -7 -7 -7 -7 -7 -7 -7
-9 -9 -8 -8 -8 -8 -9 -8 -8 -8 -7 -7 -6 -6 -5 -5 -6 -6 -5 -5 -5 -6 -5 -5 -6 -6 -6 -5 -5 -5 -6 -7 -7 -6 -6 -7 -7 -7 -7 -7 -7 -7 -7 -7
-9 -9 -9 -8 -8 -8 -8 -8 -8 -8 -7 -6 -6 -6 -6 -6 -6 -6 -6 -5 -5 -6 -5 -5 -6 -6 -6 -5 -5 -5 -5 -6 -7 -6 -6 -6 -6 -6 -7 -7 -7 -7 -7 -7
-10 -10 -9 -9 -8 -8 -8 -9 -8 -8 -7 -7 -6 -6 -6 -7 -6 -7 -7 -5 -6 -5 -5 -6 -5 -5 -5 -5 -5 -5 -5 -5 -6 -6 -6 -6 -6 -6 -6 -7 -6 -7 -7 -7
-10 -10 -10 -9 -9 -9 -8 -9 -9 -8 -8 -9 -7 -7 -8 -8 -8 -7 -8 -7 -7 -6 -5 -6 -5 -5 -5 -5 -5 -5 -5 -5 -6 -6 -6 -6 -6 -6 -6 -7 -6 -6 -7 -7
-11 -11 -10 -9 -9 -9 -9 -9 -9 -9 -9 -9 -8 -7 -7 -8 -7 -8 -8 -7 -7 -6 -5 -5 -5 -6 -5 -5 -5 -5 -5 -5 -5 -6 -6 -6 -7 -7 -6 -6 -7 -6 -6 -6
-12 -12 -11 -10 -10 -9 -9 -9 -10 -10 -10 -9 -9 -8 -8 -8 -7 -7 -6 -6 -6 -6 -5 -6 -6 -5 -6 -5 -5 -5 -6 -6 -6 -5 -6 -6 -6 -7 -7 -7 -7 -6 -6 -6
-13 -13 -11 -11 -11 -10 -10 -10 -10 -10 -10 -10 -9 -8 -9 -8 -7 -7 -6 -6 -6 -6 -7 -7 -6 -6 -6 -6 -6 -6 -5 -6 -6 -6 -6 -6 -6 -7 -7 -7 -7 -7 -6 -6
-13 -13 -13 -12 -10 -10 -10 -9 -10 -11 -10 -9 -9 -9 -8 -8 -8 -8 -7 -6 -7 -8 -7 -7 -7 -7 -6 -6 -6 -6 -6 -5 -6 -6 -6 -6 -7 -7 -6 -7 -7 -7 -7 -6
-13 -13 -14 -12 -11 -11 -10 -10 -10 -10 -11 -10 -9 -8 -9 -8 -8 -8 -8 -8 -8 -8 -7 -7 -7 -7 -6 -6 -6 -7 -6 -6 -6 -6 -6 -6 -6 -7 -7 -6 -6 -7 -7 -7
-14 -14 -14 -14 -12 -11 -11 -10 -12 -12 -11 -11 -10 -9 -9 -8 -8 -8 -8 -8 -7 -8 -8 -7 -7 -6 -7 -7 -7 -6 -6 -6 -6 -6 -6 -6 -6 -6 -6 -6 -6 -6 -7 -7
-14 -14 -13 -13 -13 -13 -11 -11 -10 -12 -11 -11 -10 -10 -10 -9 -9 -9 -9 -8 -8 -8 -7 -7 -7 -7 -7 -6 -6 -5 -6 -6 -6 -6 -6 -6 -6 -6 -6 -6 -6 -7 -6 -6
-14 -14 -14 -13 -13 -13 -13 -12 -11 -11 -12 -11 -11 -11 -11 -9 -9 -9 -9 -9 -8 -8 -8 -8 -7 -7 -7 -7 -7 -6 -7 -6 -6 -6 -6 -6 -6 -6 -6 -6 -6 -6 -6 -6
-15 -14 -14 -14 -14 -13 -13 -13 -13 -12 -12 -12 -12 -11 -11 -10 -9 -9 -10 -9 -9 -9 -9 -8 -8 -9 -8 -8 -8 -7 -7 -6 -6 -6 -6 -6 -6 -6 -7 -7 -7 -6 -6 -6
-14 -14 -15 -14 -14 -14 -14 -13 -13 -12 -12 -13 -13 -13 -11 -10 -10 -10 -10 -9 -9 -9 -9 -9 -9 -9 -8 -8 -8 -7 -7 -7 -7 -7 -6 -6 -6 -6 -6 -6 -7 -7 -7 -7
-14 -14 -14 -14 -14 -14 -14 -14 -13 -13 -13 -13 -13 -13 -12 -11 -10 -10 -10 -10 -9 -9 -9 -9 -10 -9 -9 -8 -8 -8 -8 -8 -8 -7 -8 -7 -7 -6 -6 -6 -6 -7 -8 -7
-15 -15 -14 -15 -14 -14 -14 -14 -13 -13 -13 -13 -13 -12 -12 -12 -11 -11 -10 -10 -10 -10 -10 -10 -10 -9 -9 -9 -9 -8 -8 -8 -8 -8 -9 -8 -7 -7 -7 -7 -7 -7 -8 -8
-16 -15 -15 -15 -15 -14 -13 -14 -14 -13 -14 -13 -13 -13 -12 -12 -11 -11 -11 -11 -11 -10 -10 -10 -10 -10 -10 -9 -9 -9 -9 -8 -9 -8 -9 -9 -8 -8 -7 -7 -7 -7 -6 -7
-16 -16 -15 -16 -15 -14 -14 -14 -14 -14 -14 -13 -13 -13 -12 -12 -12 -11 -11 -11 -11 -11 -11 -11 -11 -11 -11 -10 -10 -9 -9 -9 -8 -9 -10 -10 -9 -8 -8 -8 -8 -9 -8 -9
-16 -16 -16 -15 -15 -15 -15 -14 -14 -14 -14 -14 -13 -13 -13 -12 -12 -12 -11 -11 -11 -11 -11 -11 -11 -11 -11 -11 -11 -10 -10 -10 -9 -9 -10 -9 -10 -10 -9 -9 -9 -9 -10 -10
-16 -15 -16 -16 -15 -15 -15 -14 -14 -14 -14 -14 -14 -14 -13 -13 -13 -13 -12 -12 -12 -12 -11 -11 -11 -12 -11 -11 -11 -11 -10 -10 -10 -10 -10 -10 -10 -10 -10 -10 -10 -10 -10 -10
-16 -16 -16 -16 -16 -15 -15 -15 -15 -14 -14 -14 -14 -14 -14 -13 -13 -13 -13 -12 -12 -12 -12 -12 -12 -12 -12 -11 -12 -12 -12 -11 -11 -11 -11 -11 -10 -11 -10 -10 -10 -10 -10 -10
-15 -15 -15 -15 -15 -15 -15 -15 -15 -15 -14 -14 -14 -15 -14 -14 -13 -13 -13 -13 -13 -12 -13 -12 -12 -12 -12 -11 -12 -12 -12 -12 -11 -12 -11 -11 -11 -11 -10 -10 -10 -10 -10 -10
-16 -16 -16 -15 -15 -16 -15 -15 -15 -15 -15 -15 -15 -15 -15 -14 -14 -14 -13 -13 -14 -13 -13 -13 -12 -12 -11 -12 -12 -13 -12 -12 -12 -11 -12 -12 -11 -11 -11 -11 -11 -11 -11 -11

GFSCGP_500_temp_117.txt.gz
Temp
-8 -8 -8 -8 -7 -7 -8 -7 -6 -5 -6 -5 -5 -6 -6 -5 -5 -5 -4 -4 -5 -4 -5 -4 -5 -6 -5 -6 -6 -6 -7 -7 -7 -7 -7 -7 -7 -7 -7 -7 -7 -7 -7 -8
-8 -8 -8 -8 -8 -8 -7 -9 -6 -6 -6 -5 -5 -6 -6 -5 -5 -6 -5 -4 -5 -4 -5 -4 -5 -5 -5 -6 -6 -6 -6 -6 -7 -7 -7 -7 -7 -7 -7 -7 -7 -7 -7 -7
-9 -8 -9 -8 -8 -8 -8 -8 -7 -7 -7 -6 -6 -6 -5 -5 -5 -6 -5 -5 -5 -5 -5 -5 -5 -5 -6 -6 -6 -6 -6 -6 -7 -7 -7 -7 -7 -7 -7 -7 -7 -7 -7 -7
-9 -10 -9 -8 -8 -8 -10 -8 -6 -7 -6 -6 -7 -6 -6 -6 -6 -6 -6 -5 -6 -5 -5 -5 -5 -5 -5 -6 -6 -6 -6 -6 -6 -7 -7 -7 -7 -7 -7 -7 -7 -7 -7 -7
-9 -9 -9 -8 -8 -8 -9 -8 -7 -5 -7 -6 -8 -8 -7 -7 -5 -5 -5 -5 -6 -5 -5 -5 -5 -4 -5 -6 -6 -5 -6 -6 -6 -7 -6 -6 -7 -7 -7 -7 -7 -7 -7 -7
-12 -10 -9 -9 -9 -8 -9 -8 -8 -8 -7 -7 -7 -7 -6 -6 -6 -6 -6 -5 -5 -5 -5 -5 -5 -5 -5 -5 -6 -6 -5 -5 -6 -6 -6 -6 -6 -6 -6 -6 -7 -7 -7 -7
-10 -9 -9 -9 -9 -10 -8 -8 -9 -8 -9 -7 -7 -8 -7 -7 -7 -7 -6 -6 -6 -5 -5 -5 -5 -6 -5 -5 -5 -6 -6 -5 -6 -6 -6 -6 -6 -6 -6 -6 -6 -7 -7 -7
-11 -10 -10 -9 -9 -10 -8 -9 -9 -9 -8 -7 -7 -8 -8 -7 -7 -7 -7 -7 -6 -6 -5 -5 -5 -5 -6 -5 -5 -5 -6 -6 -5 -6 -6 -6 -6 -6 -6 -6 -6 -7 -7 -7
-13 -12 -11 -10 -9 -10 -10 -10 -10 -8 -8 -7 -7 -7 -7 -8 -7 -7 -7 -8 -7 -5 -5 -5 -5 -5 -6 -5 -5 -5 -5 -6 -6 -6 -6 -6 -6 -6 -6 -6 -6 -7 -6 -7
-13 -12 -12 -10 -10 -10 -10 -11 -11 -10 -8 -8 -7 -7 -8 -7 -7 -7 -7 -7 -6 -7 -6 -5 -5 -5 -5 -6 -6 -5 -5 -5 -6 -6 -6 -6 -6 -6 -6 -7 -6 -6 -6 -6
-14 -13 -12 -12 -9 -9 -9 -9 -11 -10 -9 -8 -7 -7 -7 -7 -7 -7 -7 -7 -6 -6 -7 -7 -6 -5 -5 -5 -6 -6 -6 -6 -6 -6 -6 -6 -6 -6 -6 -6 -6 -6 -7 -7
-13 -13 -13 -12 -12 -10 -12 -11 -11 -10 -9 -9 -9 -7 -7 -8 -8 -8 -7 -7 -7 -6 -7 -6 -7 -6 -5 -5 -6 -6 -6 -6 -6 -6 -6 -6 -6 -6 -6 -6 -6 -6 -6 -7
-14 -13 -13 -11 -12 -12 -11 -12 -11 -11 -10 -9 -9 -9 -8 -8 -8 -8 -7 -8 -7 -6 -7 -7 -7 -6 -5 -6 -6 -6 -6 -6 -6 -6 -6 -6 -6 -6 -6 -6 -6 -6 -6 -7
-14 -14 -13 -12 -12 -12 -12 -12 -12 -11 -10 -10 -9 -9 -10 -9 -9 -9 -8 -8 -7 -7 -7 -7 -8 -7 -6 -7 -7 -6 -6 -6 -6 -6 -6 -6 -6 -6 -6 -7 -6 -7 -7 -6
-14 -14 -13 -11 -12 -12 -12 -11 -12 -11 -10 -10 -9 -10 -8 -8 -8 -9 -8 -8 -8 -7 -7 -7 -7 -7 -7 -7 -7 -7 -7 -7 -7 -6 -6 -6 -6 -6 -6 -6 -6 -6 -7 -6
-15 -14 -13 -11 -12 -12 -12 -12 -12 -12 -11 -11 -10 -8 -6 -11 -9 -8 -9 -9 -8 -8 -8 -8 -8 -8 -7 -7 -7 -7 -6 -6 -6 -6 -6 -6 -6 -6 -6 -6 -6 -6 -6 -7
-14 -12 -13 -13 -13 -12 -12 -12 -12 -12 -11 -11 -11 -9 -9 -8 -9 -9 -9 -9 -9 -8 -9 -8 -8 -8 -9 -9 -9 -8 -7 -7 -7 -7 -6 -6 -6 -6 -6 -6 -6 -6 -6 -6
-14 -14 -13 -13 -13 -13 -12 -11 -12 -11 -12 -12 -10 -10 -7 -10 -10 -10 -10 -9 -9 -9 -9 -9 -9 -9 -9 -9 -8 -8 -8 -7 -7 -7 -7 -7 -6 -6 -7 -6 -6 -6 -6 -6
-15 -14 -14 -13 -13 -13 -13 -12 -13 -13 -12 -12 -11 -10 -10 -11 -10 -10 -10 -10 -10 -10 -10 -10 -10 -9 -9 -9 -9 -9 -9 -8 -7 -8 -7 -8 -8 -7 -7 -7 -7 -6 -6 -6
-15 -15 -14 -14 -14 -13 -13 -13 -13 -13 -12 -12 -13 -11 -12 -11 -11 -10 -10 -10 -10 -10 -10 -10 -10 -10 -9 -10 -10 -9 -9 -8 -8 -8 -8 -8 -8 -8 -9 -8 -7 -7 -6 -7
-16 -16 -16 -15 -14 -14 -14 -13 -14 -13 -13 -13 -13 -13 -12 -12 -11 -11 -11 -11 -11 -11 -10 -10 -10 -10 -9 -10 -10 -10 -9 -8 -8 -8 -9 -8 -8 -8 -9 -8 -7 -7 -7 -7
-15 -15 -16 -15 -15 -14 -14 -14 -14 -13 -13 -13 -13 -13 -12 -12 -12 -12 -11 -11 -11 -10 -10 -11 -11 -10 -10 -10 -10 -10 -9 -9 -9 -9 -8 -9 -9 -8 -9 -8 -8 -7 -7 -8
-15 -15 -15 -15 -14 -14 -14 -14 -14 -14 -14 -14 -14 -13 -13 -13 -12 -12 -12 -12 -11 -11 -11 -11 -11 -10 -11 -10 -10 -10 -10 -10 -10 -10 -9 -10 -10 -9 -9 -9 -9 -10 -9 -9
-15 -15 -15 -15 -15 -14 -14 -14 -14 -14 -14 -14 -14 -14 -13 -13 -13 -13 -12 -12 -12 -12 -12 -11 -11 -11 -11 -11 -11 -11 -11 -11 -11 -10 -10 -10 -10 -10 -10 -10 -10 -10 -10 -10
-15 -15 -15 -15 -15 -15 -15 -14 -14 -14 -14 -14 -14 -14 -14 -13 -13 -13 -13 -13 -12 -12 -12 -12 -12 -11 -12 -11 -11 -11 -11 -11 -11 -11 -11 -11 -10 -10 -10 -10 -10 -11 -10 -10
-15 -15 -15 -15 -15 -15 -14 -15 -15 -15 -14 -14 -14 -14 -14 -14 -14 -14 -13 -13 -13 -13 -13 -12 -12 -12 -12 -12 -12 -12 -12 -12 -11 -11 -12 -12 -11 -11 -11 -11 -11 -11 -11 -11

GFSCGP_500_temp_123.txt.gz
Temp
-10 -9 -9 -8 -8 -7 -7 -6 -6 -6 -6 -6 -6 -6 -5 -5 -5 -5 -5 -4 -5 -5 -5 -5 -5 -5 -6 -6 -6 -6 -6 -6 -6 -6 -6 -6 -6 -7 -7 -7 -7 -7 -7 -7
-9 -9 -9 -9 -9 -7 -7 -6 -6 -6 -6 -6 -6 -7 -6 -6 -4 -4 -5 -5 -4 -5 -5 -5 -5 -5 -6 -5 -6 -6 -6 -6 -6 -6 -6 -6 -6 -6 -6 -7 -7 -7 -7 -7
-9 -10 -10 -9 -8 -8 -6 -7 -7 -7 -7 -7 -6 -6 -5 -5 -4 -5 -5 -4 -4 -4 -4 -5 -5 -5 -5 -6 -6 -6 -5 -6 -6 -6 -6 -6 -6 -6 -6 -6 -7 -7 -7 -6
-9 -9 -10 -9 -9 -8 -8 -7 -7 -7 -7 -7 -6 -6 -6 -6 -5 -4 -4 -4 -4 -4 -4 -5 -5 -5 -5 -5 -6 -6 -6 -6 -6 -6 -7 -6 -6 -6 -6 -6 -6 -7 -7 -6
-9 -9 -9 -10 -9 -9 -9 -7 -6 -7 -7 -5 -7 -6 -6 -6 -5 -5 -4 -4 -4 -4 -4 -4 -4 -6 -5 -6 -5 -5 -6 -6 -7 -7 -6 -6 -6 -6 -6 -6 -6 -6 -6 -6
-10 -10 -9 -9 -9 -10 -9 -8 -8 -8 -7 -7 -7 -6 -6 -6 -7 -6 -5 -4 -4 -5 -4 -4 -4 -4 -5 -5 -6 -5 -6 -6 -6 -6 -6 -6 -6 -6 -6 -6 -6 -6 -6 -6
-10 -9 -10 -9 -9 -11 -9 -9 -8 -8 -7 -7 -6 -6 -7 -7 -8 -7 -5 -3 -4 -4 -5 -5 -5 -5 -5 -6 -5 -5 -6 -6 -6 -6 -6 -6 -6 -7 -6 -7 -7 -7 -7 -7
-11 -10 -9 -8 -9 -9 -9 -9 -8 -7 -8 -7 -7 -6 -7 -6 -6 -6 -5 -4 -5 -5 -5 -5 -6 -6 -5 -6 -6 -6 -5 -6 -7 -6 -6 -6 -6 -6 -7 -7 -7 -7 -7 -7
-13 -12 -12 -11 -9 -9 -9 -9 -9 -9 -8 -7 -7 -7 -6 -7 -7 -7 -6 -4 -5 -5 -6 -6 -5 -6 -5 -6 -6 -6 -6 -6 -6 -7 -6 -7 -7 -6 -6 -7 -7 -7 -7 -7
-13 -11 -11 -12 -10 -9 -9 -10 -10 -10 -9 -8 -8 -7 -7 -7 -7 -7 -7 -5 -5 -6 -5 -6 -5 -5 -4 -5 -7 -6 -6 -6 -6 -6 -7 -6 -6 -7 -7 -6 -7 -7 -6 -6
-12 -12 -11 -12 -11 -10 -10 -9 -9 -9 -10 -9 -8 -8 -8 -8 -8 -8 -7 -6 -8 -8 -6 -5 -7 -6 -5 -5 -6 -6 -6 -6 -6 -6 -6 -7 -7 -7 -7 -7 -7 -7 -7 -7
-13 -12 -12 -12 -12 -11 -10 -10 -9 -9 -9 -9 -9 -8 -8 -8 -9 -8 -7 -7 -7 -7 -6 -6 -6 -6 -7 -6 -5 -6 -6 -6 -6 -6 -6 -6 -7 -7 -7 -6 -7 -6 -6 -6
-12 -12 -11 -12 -12 -12 -11 -10 -9 -9 -9 -9 -9 -9 -9 -8 -8 -7 -8 -7 -7 -7 -7 -6 -6 -6 -6 -6 -6 -6 -6 -6 -6 -6 -6 -6 -6 -6 -6 -6 -6 -6 -6 -6
-13 -12 -12 -12 -11 -11 -11 -12 -11 -9 -9 -8 -9 -10 -10 -9 -8 -7 -7 -8 -7 -6 -7 -6 -5 -5 -5 -6 -6 -7 -7 -7 -7 -7 -6 -6 -6 -5 -6 -6 -6 -6 -6 -6
-13 -12 -12 -12 -11 -11 -12 -12 -12 -11 -9 -9 -9 -10 -10 -10 -8 -8 -8 -6 -8 -8 -7 -7 -6 -6 -6 -6 -6 -7 -6 -7 -8 -7 -7 -6 -7 -6 -6 -6 -5 -6 -6 -6
-14 -13 -13 -12 -10 -11 -12 -12 -12 -11 -11 -10 -10 -10 -9 -9 -8 -7 -7 -6 -6 -8 -8 -8 -6 -6 -6 -6 -6 -6 -6 -6 -8 -7 -7 -6 -6 -6 -6 -6 -5 -6 -7 -7
-14 -13 -13 -13 -11 -11 -12 -12 -11 -11 -11 -10 -10 -11 -9 -10 -10 -7 -6 -6 -7 -9 -8 -8 -8 -8 -7 -7 -7 -7 -6 -6 -6 -7 -7 -7 -6 -6 -6 -5 -5 -6 -6 -6
-15 -14 -13 -12 -12 -12 -12 -11 -11 -11 -11 -10 -10 -8 -8 -7 -7 -8 -8 -10 -8 -8 -9 -8 -8 -7 -6 -7 -7 -6 -7 -7 -8 -7 -7 -7 -6 -5 -5 -6 -6 -6 -6 -6
-14 -15 -14 -14 -13 -12 -12 -12 -11 -11 -11 -11 -10 -9 -9 -8 -7 -8 -8 -7 -8 -8 -8 -8 -7 -7 -7 -6 -7 -7 -7 -8 -9 -8 -8 -8 -8 -7 -6 -7 -6 -6 -6 -6
-14 -14 -14 -14 -13 -13 -12 -12 -12 -11 -11 -11 -10 -9 -9 -9 -9 -9 -9 -9 -9 -9 -9 -9 -8 -8 -8 -8 -8 -8 -7 -6 -8 -9 -8 -9 -9 -8 -7 -8 -8 -8 -7 -7
-14 -14 -14 -14 -14 -13 -12 -12 -12 -12 -12 -11 -11 -10 -10 -11 -11 -11 -11 -10 -10 -10 -9 -10 -9 -9 -8 -8 -8 -8 -7 -8 -9 -8 -8 -10 -10 -10 -10 -9 -9 -8 -7 -7
-15 -14 -14 -14 -13 -13 -14 -14 -13 -13 -12 -11 -12 -11 -12 -12 -11 -11 -12 -11 -10 -11 -10 -10 -10 -10 -10 -10 -10 -9 -9 -9 -9 -8 -8 -9 -10 -10 -9 -8 -8 -9 -8 -7
-16 -15 -15 -14 -14 -14 -14 -14 -14 -13 -13 -13 -12 -12 -12 -12 -12 -12 -12 -12 -12 -10 -10 -9 -10 -10 -9 -9 -10 -10 -10 -10 -10 -9 -9 -10 -10 -9 -9 -9 -9 -8 -8 -8
-14 -15 -14 -15 -15 -15 -15 -15 -14 -15 -14 -14 -12 -12 -11 -11 -12 -12 -12 -12 -11 -11 -11 -11 -10 -10 -10 -10 -10 -10 -10 -10 -10 -10 -10 -10 -10 -10 -10 -10 -9 -9 -9 -9
-15 -14 -14 -14 -14 -14 -13 -14 -13 -14 -14 -13 -12 -11 -11 -12 -12 -12 -12 -12 -12 -12 -12 -12 -12 -11 -11 -11 -11 -11 -11 -11 -10 -11 -11 -11 -10 -10 -10 -10 -10 -10 -10 -9
-15 -15 -14 -14 -14 -14 -14 -14 -13 -13 -13 -13 -12 -12 -11 -12 -12 -12 -12 -12 -11 -11 -11 -12 -12 -12 -12 -12 -12 -11 -11 -11 -11 -11 -11 -11 -11 -10 -10 -10 -10 -11 -11 -10